• In Hungary
  • List of Countries
  • For 7 days
  • Water Temperature
  • Satellite Maps
  • Weather Map
  • News
  • Weather Widgets
  • user-avatar
    Login

    Hourly Weather Kecskemet

    Today, 18 November, Saturday

    Time Temperature Precipitation Wind Pressure Humidity
    00:00 +5°C° 0 mm 2 mps 755 mmHg 77%
    01:00 +6°C° 0 mm 1 mps 754 mmHg 78%
    02:00 +6°C° 0.1 mm 1 mps 754 mmHg 79%
    03:00 +6°C° 0.1 mm 1 mps 754 mmHg 80%
    04:00 +6°C° 0.1 mm 1 mps 754 mmHg 81%
    05:00 +5°C° 0.1 mm 1 mps 754 mmHg 82%
    06:00 +5°C° 0.1 mm 1 mps 753 mmHg 83%
    07:00 +5°C° 0 mm 1 mps 754 mmHg 85%
    08:00 +6°C° 0.1 mm 1 mps 754 mmHg 83%
    09:00 +5°C° 0.1 mm 2 mps 754 mmHg 81%
    10:00 +6°C° 0.1 mm 2 mps 754 mmHg 80%
    11:00 +6°C° 0 mm 2 mps 753 mmHg 77%
    12:00 +7°C° 0 mm 2 mps 753 mmHg 74%
    13:00 +8°C° 0 mm 2 mps 753 mmHg 71%
    14:00 +7°C° 0 mm 2 mps 753 mmHg 73%
    15:00 +8°C° 0 mm 1 mps 752 mmHg 75%
    16:00 +8°C° 0 mm 1 mps 752 mmHg 76%
    17:00 +7°C° 0 mm 1 mps 752 mmHg 77%
    18:00 +6°C° 0 mm 2 mps 752 mmHg 78%
    19:00 +5°C° 0 mm 2 mps 752 mmHg 79%
    20:00 +5°C° 0 mm 2 mps 752 mmHg 79%
    21:00 +3°C° 0 mm 3 mps 752 mmHg 78%
    22:00 +3°C° 0 mm 3 mps 752 mmHg 77%
    23:00 +3°C° 0 mm 3 mps 752 mmHg 78%

    Tomorrow, 19 November, Sunday

    Time Temperature Precipitation Wind Pressure Humidity
    00:00 +2°C° 0 mm 3 mps 752 mmHg 79%
    01:00 +2°C° 0 mm 3 mps 751 mmHg 79%
    02:00 +2°C° 0 mm 3 mps 751 mmHg 80%
    03:00 +2°C° 0 mm 3 mps 751 mmHg 81%
    04:00 +2°C° 0 mm 3 mps 751 mmHg 82%
    05:00 +2°C° 0 mm 3 mps 750 mmHg 82%
    06:00 +2°C° 0 mm 3 mps 750 mmHg 82%
    07:00 +2°C° 0 mm 3 mps 750 mmHg 82%
    08:00 +3°C° 0 mm 4 mps 750 mmHg 77%
    09:00 +4°C° 0 mm 4 mps 750 mmHg 71%
    10:00 +5°C° 0 mm 4 mps 750 mmHg 66%
    11:00 +5°C° 0 mm 4 mps 750 mmHg 63%
    12:00 +6°C° 0 mm 4 mps 750 mmHg 61%
    13:00 +7°C° 0 mm 4 mps 749 mmHg 58%
    14:00 +6°C° 0.1 mm 4 mps 749 mmHg 62%
    15:00 +5°C° 0.1 mm 3 mps 749 mmHg 65%
    16:00 +5°C° 0.1 mm 3 mps 749 mmHg 68%
    17:00 +5°C° 0.4 mm 3 mps 749 mmHg 72%
    18:00 +4°C° 0.4 mm 3 mps 749 mmHg 75%
    19:00 +4°C° 0.4 mm 3 mps 750 mmHg 79%
    20:00 +4°C° 0 mm 4 mps 750 mmHg 78%
    21:00 +3°C° 0 mm 4 mps 750 mmHg 78%
    22:00 +3°C° 0 mm 4 mps 750 mmHg 77%
    23:00 +3°C° 0 mm 4 mps 750 mmHg 76%

    Day after tomorrow, 20 November, Monday

    Time Temperature Precipitation Wind Pressure Humidity
    00:00 +1°C° 0 mm 4 mps 751 mmHg 76%
    01:00 +1°C° 0 mm 4 mps 751 mmHg 75%
    02:00 +1°C° 0 mm 4 mps 751 mmHg 76%
    03:00 +1°C° 0 mm 4 mps 751 mmHg 76%
    04:00 +1°C° 0 mm 4 mps 751 mmHg 77%
    05:00 +1°C° 0 mm 5 mps 751 mmHg 76%
    06:00 +1°C° 0 mm 5 mps 751 mmHg 75%
    07:00 +1°C° 0 mm 6 mps 751 mmHg 74%
    08:00 +2°C° 0 mm 6 mps 752 mmHg 69%
    09:00 +3°C° 0 mm 7 mps 752 mmHg 65%
    10:00 +5°C° 0 mm 8 mps 753 mmHg 60%
    11:00 +5°C° 0 mm 8 mps 753 mmHg 59%
    12:00 +5°C° 0 mm 8 mps 753 mmHg 57%
    13:00 +6°C° 0 mm 8 mps 753 mmHg 55%
    14:00 +5°C° 0 mm 7 mps 753 mmHg 58%
    15:00 +5°C° 0 mm 6 mps 753 mmHg 60%
    16:00 +5°C° 0 mm 5 mps 753 mmHg 63%
    17:00 +4°C° 0 mm 4 mps 753 mmHg 64%
    18:00 +4°C° 0 mm 4 mps 753 mmHg 66%
    19:00 +4°C° 0 mm 4 mps 753 mmHg 67%
    20:00 +4°C° 0 mm 4 mps 753 mmHg 67%
    21:00 +4°C° 0 mm 4 mps 754 mmHg 67%
    22:00 +4°C° 0 mm 4 mps 754 mmHg 67%
    23:00 +4°C° 0 mm 4 mps 753 mmHg 68%

    21 November, Tuesday

    Time Temperature Precipitation Wind Pressure Humidity
    00:00 +4°C° 0 mm 3 mps 753 mmHg 69%
    01:00 +3°C° 0 mm 3 mps 753 mmHg 70%
    02:00 +3°C° 0.3 mm 3 mps 752 mmHg 70%
    03:00 +4°C° 0.3 mm 4 mps 752 mmHg 71%
    04:00 +4°C° 0.3 mm 4 mps 751 mmHg 71%
    05:00 +4°C° 0.3 mm 4 mps 751 mmHg 71%
    06:00 +3°C° 0.3 mm 5 mps 750 mmHg 71%
    07:00 +3°C° 0.3 mm 5 mps 750 mmHg 71%
    08:00 +3°C° 0.2 mm 6 mps 750 mmHg 71%
    09:00 +4°C° 0.2 mm 6 mps 750 mmHg 72%
    10:00 +5°C° 0.2 mm 6 mps 750 mmHg 72%
    11:00 +5°C° 0.2 mm 7 mps 750 mmHg 71%
    12:00 +6°C° 0.2 mm 7 mps 750 mmHg 69%
    13:00 +8°C° 0.2 mm 7 mps 749 mmHg 68%
    14:00 +8°C° 0 mm 7 mps 750 mmHg 70%
    15:00 +8°C° 0 mm 6 mps 750 mmHg 71%
    16:00 +8°C° 0 mm 5 mps 750 mmHg 73%
    17:00 +8°C° 0 mm 5 mps 750 mmHg 74%
    18:00 +8°C° 0 mm 5 mps 750 mmHg 74%
    19:00 +8°C° 0 mm 5 mps 750 mmHg 75%
    20:00 +8°C° 0 mm 5 mps 751 mmHg 75%
    21:00 +8°C° 0 mm 5 mps 751 mmHg 75%
    22:00 +8°C° 0 mm 5 mps 751 mmHg 75%
    23:00 +7°C° 0 mm 5 mps 751 mmHg 77%

    22 November, Wednesday

    Time Temperature Precipitation Wind Pressure Humidity
    00:00 +7°C° 0 mm 5 mps 751 mmHg 79%
    01:00 +7°C° 0 mm 5 mps 751 mmHg 80%
    02:00 +6°C° 0 mm 5 mps 752 mmHg 83%
    03:00 +6°C° 0 mm 4 mps 752 mmHg 85%
    04:00 +6°C° 0 mm 4 mps 752 mmHg 88%
    05:00 +5°C° 0 mm 3 mps 752 mmHg 89%
    06:00 +5°C° 0 mm 3 mps 753 mmHg 90%
    07:00 +5°C° 0 mm 3 mps 753 mmHg 91%
    08:00 +7°C° 0 mm 3 mps 753 mmHg 85%
    09:00 +8°C° 0 mm 3 mps 754 mmHg 80%
    10:00 +9°C° 0 mm 2 mps 754 mmHg 75%
    11:00 +10°C° 0 mm 2 mps 754 mmHg 71%
    12:00 +12°C° 0 mm 2 mps 754 mmHg 67%
    13:00 +13°C° 0 mm 2 mps 754 mmHg 64%
    14:00 +12°C° 0 mm 2 mps 754 mmHg 67%
    15:00 +11°C° 0 mm 1 mps 754 mmHg 71%
    16:00 +11°C° 0 mm 1 mps 754 mmHg 75%
    17:00 +9°C° 0 mm 2 mps 754 mmHg 77%
    18:00 +9°C° 0 mm 2 mps 754 mmHg 79%
    19:00 +8°C° 0 mm 2 mps 755 mmHg 82%
    20:00 +8°C° 0 mm 2 mps 755 mmHg 83%
    21:00 +8°C° 0 mm 2 mps 755 mmHg 85%
    22:00 +7°C° 0 mm 2 mps 755 mmHg 86%
    23:00 +7°C° 0 mm 2 mps 755 mmHg 87%

    23 November, Thursday

    Time Temperature Precipitation Wind Pressure Humidity
    00:00 +7°C° 0 mm 3 mps 755 mmHg 88%
    01:00 +7°C° 0 mm 3 mps 755 mmHg 89%
    02:00 +7°C° 0 mm 3 mps 755 mmHg 89%
    03:00 +5°C° 0 mm 3 mps 755 mmHg 90%
    04:00 +6°C° 0 mm 2 mps 755 mmHg 90%
    05:00 +6°C° 0 mm 2 mps 755 mmHg 90%
    06:00 +6°C° 0 mm 2 mps 755 mmHg 90%
    07:00 +5°C° 0 mm 2 mps 755 mmHg 90%
    08:00 +7°C° 0 mm 2 mps 756 mmHg 85%
    09:00 +8°C° 0 mm 3 mps 756 mmHg 79%
    10:00 +10°C° 0 mm 3 mps 756 mmHg 73%
    11:00 +11°C° 0 mm 3 mps 756 mmHg 69%
    12:00 +12°C° 0 mm 3 mps 756 mmHg 65%
    13:00 +13°C° 0 mm 3 mps 756 mmHg 61%
    14:00 +12°C° 0 mm 3 mps 756 mmHg 64%
    15:00 +12°C° 0 mm 2 mps 756 mmHg 67%
    16:00 +10°C° 0 mm 2 mps 756 mmHg 71%
    17:00 +10°C° 0 mm 2 mps 756 mmHg 72%
    18:00 +9°C° 0 mm 3 mps 756 mmHg 74%
    19:00 +9°C° 0 mm 3 mps 756 mmHg 75%
    20:00 +8°C° 0 mm 3 mps 757 mmHg 75%
    21:00 +8°C° 0 mm 3 mps 757 mmHg 75%
    22:00 +8°C° 0 mm 3 mps 757 mmHg 74%
    23:00 +8°C° 0 mm 3 mps 757 mmHg 76%
    Show more